GW4109 Weather Reports


Display with metric or nautical units.
time (UTC)temp
F
wind
direction
speed
MPH
gust
MPH
rain 1hr
in
rain 24hr
in
rain mn
in
humidity
%
barometer
mb
20260508044151 90 273 12.0 25.0 0.00 0.00 0.00 17 1014.4
20260508043647 89 273 9.0 18.0 0.00 0.00 0.00 17 1014.2
20260508043146 89 256 13.0 20.0 0.00 0.00 0.00 17 1014.5
20260508042642 89 236 22.0 23.0 0.00 0.00 0.00 16 1014.3
20260508042139 89 247 17.0 19.0 0.00 0.00 0.00 17 1014.5
20260508041635 89 244 13.0 25.0 0.00 0.00 0.00 18 1014.3
20260508041132 89 292 7.0 18.0 0.00 0.00 0.00 19 1014.1
20260508040629 89 265 14.0 19.0 0.00 0.00 0.00 17 1014.0
20260508040127 89 297 11.0 20.0 0.00 0.00 0.00 18 1013.9
20260508035624 89 287 8.0 23.0 0.00 0.00 0.00 19 1013.7
20260508035121 89 275 8.0 20.0 0.00 0.00 0.00 19 1013.7
20260508034618 89 301 16.0 19.0 0.00 0.00 0.00 20 1013.7
20260508034115 89 253 12.0 22.0 0.00 0.00 0.00 21 1013.6
20260508033612 89 298 12.0 20.0 0.00 0.00 0.00 22 1013.6
20260508033110 89 240 14.0 20.0 0.00 0.00 0.00 23 1013.3
20260508032606 88 314 21.0 27.0 0.00 0.00 0.00 24 1013.3
20260508032104 88 287 11.0 22.0 0.00 0.00 0.00 26 1013.1
20260508031601 88 299 15.0 26.0 0.00 0.00 0.00 26 1013.2
20260508031057 88 288 7.0 19.0 0.00 0.00 0.00 25 1013.2
20260508030553 88 283 11.0 22.0 0.00 0.00 0.00 26 1013.1
20260508030052 89 295 12.0 20.0 0.00 0.00 0.00 26 1012.9
20260508025547 89 293 19.0 26.0 0.00 0.00 0.00 27 1012.9
20260508025045 89 277 9.0 21.0 0.00 0.00 0.00 27 1013.0
20260508024540 89 279 9.0 23.0 0.00 0.00 0.00 26 1012.8
20260508024038 89 305 14.0 26.0 0.00 0.00 0.00 29 1012.8
20260508023534 89 290 12.0 22.0 0.00 0.00 0.00 28 1012.8
20260508023032 89 314 17.0 23.0 0.00 0.00 0.00 28 1012.9
20260508022527 89 266 7.0 18.0 0.00 0.00 0.00 26 1012.8
20260508022025 89 309 15.0 23.0 0.00 0.00 0.00 28 1012.5
20260508021520 89 296 15.0 25.0 0.00 0.00 0.00 29 1012.6
20260508021016 89 310 17.0 25.0 0.00 0.00 0.00 27 1012.6
20260508020514 90 284 10.0 23.0 0.00 0.00 0.00 27 1012.8
20260508020012 90 295 8.0 23.0 0.00 0.00 0.00 27 1012.5
20260508015509 89 293 12.0 19.0 0.00 0.00 0.00 28 1012.6
20260508015006 90 305 19.0 26.0 0.00 0.00 0.00 29 1012.7
20260508014502 90 285 14.0 17.0 0.00 0.00 0.00 29 1012.6
20260508013958 90 309 11.0 17.0 0.00 0.00 0.00 27 1012.5
20260508013454 90 282 6.0 23.0 0.00 0.00 0.00 27 1012.7
20260508012952 91 299 10.0 18.0 0.00 0.00 0.00 27 1012.8
20260508012449 91 293 6.0 18.0 0.00 0.00 0.00 24 1012.7
20260508011946 92 264 10.0 20.0 0.00 0.00 0.00 24 1012.7
20260508011444 93 257 14.0 19.0 0.00 0.00 0.00 23 1012.6
20260508010941 93 263 10.0 19.0 0.00 0.00 0.00 23 1012.9
20260508010438 93 256 12.0 19.0 0.00 0.00 0.00 23 1012.8
20260508005935 94 262 11.0 19.0 0.00 0.00 0.00 22 1012.9
20260508005432 94 259 15.0 20.0 0.00 0.00 0.00 22 1012.8
20260508004928 94 255 12.0 23.0 0.00 0.00 0.00 21 1012.8
20260508004425 95 258 12.0 17.0 0.00 0.00 0.00 21 1012.8
20260508003921 95 245 16.0 20.0 0.00 0.00 0.00 20 1012.9
20260508003418 95 278 4.0 20.0 0.00 0.00 0.00 19 1013.0
20260508002916 96 254 8.0 17.0 0.00 0.00 0.00 20 1013.0
20260508002412 96 258 13.0 20.0 0.00 0.00 0.00 20 1012.9
20260508001908 97 257 13.0 17.0 0.00 0.00 0.00 19 1012.8
20260508001404 96 247 11.0 15.0 0.00 0.00 0.00 18 1012.8
20260508000901 97 241 4.0 15.0 0.00 0.00 0.00 19 1013.0
20260508000357 97 269 10.0 17.0 0.00 0.00 0.00 18 1013.0
20260507235854 97 340 8.0 21.0 0.00 0.00 0.00 18 1012.9
20260507235352 98 293 6.0 14.0 0.00 0.00 0.00 19 1012.9
20260507234849 98 257 8.0 16.0 0.00 0.00 0.00 18 1012.8
20260507234345 97 238 17.0 19.0 0.00 0.00 0.00 17 1012.8
20260507233841 97 310 10.0 15.0 0.00 0.00 0.00 18 1013.1
20260507233339 97 236 9.0 19.0 0.00 0.00 0.00 19 1012.8
20260507232837 98 229 8.0 16.0 0.00 0.00 0.00 18 1012.7
20260507232333 98 247 11.0 20.0 0.00 0.00 0.00 18 1012.9
20260507231831 98 224 5.0 16.0 0.00 0.00 0.00 19 1013.0
20260507231327 99 253 8.0 10.0 0.00 0.00 0.00 17 1013.1
20260507230823 98 248 5.0 16.0 0.00 0.00 0.00 17 1013.0
20260507230321 98 243 13.0 17.0 0.00 0.00 0.00 17 1012.9
20260507225821 99 298 3.0 9.0 0.00 0.00 0.00 17 1013.1
20260507225317 100 314 4.0 6.0 0.00 0.00 0.00 16 1013.0
20260507224813 99 264 3.0 6.0 0.00 0.00 0.00 15 1013.1
20260507224310 98 101 3.0 5.0 0.00 0.00 0.00 15 1013.4
20260507223806 99 28 4.0 6.0 0.00 0.00 0.00 15 1013.2
20260507223302 101 62 5.0 6.0 0.00 0.00 0.00 15 1013.3
20260507222800 100 94 2.0 5.0 0.00 0.00 0.00 14 1013.3
20260507222256 100 227 0.0 10.0 0.00 0.00 0.00 13 1013.4
20260507221753 101 111 3.0 5.0 0.00 0.00 0.00 13 1013.4
20260507221249 99 71 5.0 6.0 0.00 0.00 0.00 13 1013.7
20260507220746 101 231 6.0 9.0 0.00 0.00 0.00 13 1013.5
20260507220244 101 227 4.0 6.0 0.00 0.00 0.00 13 1013.7
20260507215740 101 126 2.0 5.0 0.00 0.00 0.00 12 1014.1
20260507215232 102 202 2.0 3.0 0.00 0.00 0.00 12 1014.0
20260507214729 100 192 4.0 12.0 0.00 0.00 0.00 13 1014.1
20260507214226 101 93 5.0 6.0 0.00 0.00 0.00 13 1014.1
20260507213721 100 242 5.0 6.0 0.00 0.00 0.00 13 1014.3
20260507213219 98 7 2.0 5.0 0.00 0.00 0.00 14 1014.3
20260507212715 99 208 2.0 6.0 0.00 0.00 0.00 13 1014.5
20260507212212 97 330 2.0 5.0 0.00 0.00 0.00 13 1014.5
20260507211708 99 129 3.0 5.0 0.00 0.00 0.00 13 1014.4
20260507211204 100 136 3.0 5.0 0.00 0.00 0.00 13 1014.6
20260507210702 101 166 2.0 5.0 0.00 0.00 0.00 13 1014.8
20260507210158 99 167 2.0 10.0 0.00 0.00 0.00 13 1014.7
20260507205654 98 260 1.0 6.0 0.00 0.00 0.00 14 1014.6
20260507205151 99 248 2.0 4.0 0.00 0.00 0.00 14 1014.8
20260507204647 98 171 1.0 5.0 0.00 0.00 0.00 14 1015.0
20260507204145 98 311 1.0 5.0 0.00 0.00 0.00 14 1015.0
20260507203643 99 41 6.0 9.0 0.00 0.00 0.00 14 1015.0
20260507203140 98 68 0.0 11.0 0.00 0.00 0.00 14 1015.1
20260507202636 98 151 2.0 4.0 0.00 0.00 0.00 14 1015.2
20260507202132 98 156 1.0 4.0 0.00 0.00 0.00 14 1015.2
20260507201627 96 163 4.0 7.0 0.00 0.00 0.00 15 1015.2
20260507201125 98 118 3.0 8.0 0.00 0.00 0.00 14 1015.1
20260507200620 98 69 3.0 4.0 0.00 0.00 0.00 15 1015.3
20260507200117 96 18 3.0 4.0 0.00 0.00 0.00 15 1015.4
20260507195614 98 61 3.0 7.0 0.00 0.00 0.00 15 1015.6
20260507195111 97 75 5.0 9.0 0.00 0.00 0.00 15 1015.6
20260507194608 97 102 3.0 6.0 0.00 0.00 0.00 15 1015.7
20260507194103 97 230 1.0 3.0 0.00 0.00 0.00 14 1015.6
20260507193601 95 206 1.0 5.0 0.00 0.00 0.00 15 1015.9
20260507193057 96 83 4.0 4.0 0.00 0.00 0.00 15 1016.1
20260507192553 97 109 6.0 9.0 0.00 0.00 0.00 15 1016.1
20260507192051 96 208 2.0 5.0 0.00 0.00 0.00 15 1016.1
20260507191546 97 118 3.0 8.0 0.00 0.00 0.00 15 1016.1
20260507191043 98 93 2.0 4.0 0.00 0.00 0.00 15 1016.2
20260507190540 95 209 0.0 5.0 0.00 0.00 0.00 16 1016.3
20260507190039 95 314 3.0 3.0 0.00 0.00 0.00 15 1016.5
20260507185537 96 132 3.0 3.0 0.00 0.00 0.00 15 1016.6
20260507185033 95 102 5.0 6.0 0.00 0.00 0.00 16 1016.3
20260507184532 94 103 5.0 7.0 0.00 0.00 0.00 17 1016.7
20260507184029 96 75 4.0 7.0 0.00 0.00 0.00 16 1016.7
20260507183525 95 101 3.0 5.0 0.00 0.00 0.00 17 1016.8
20260507183022 94 111 2.0 5.0 0.00 0.00 0.00 18 1016.7
20260507182518 93 152 2.0 7.0 0.00 0.00 0.00 18 1016.9
20260507182014 95 97 3.0 4.0 0.00 0.00 0.00 18 1016.9
20260507181512 92 56 1.0 4.0 0.00 0.00 0.00 20 1017.1
20260507181008 93 164 1.0 3.0 0.00 0.00 0.00 20 1017.0
20260507180504 93 95 3.0 4.0 0.00 0.00 0.00 19 1017.0
20260507180000 92 100 7.0 10.0 0.00 0.00 0.00 20 1017.2
20260507175457 93 109 5.0 5.0 0.00 0.00 0.00 20 1017.2
20260507174955 91 187 2.0 5.0 0.00 0.00 0.00 20 1017.0
20260507174452 92 116 2.0 3.0 0.00 0.00 0.00 20 1017.2
20260507173949 91 134 1.0 3.0 0.00 0.00 0.00 21 1017.4
20260507173446 91 105 2.0 2.0 0.00 0.00 0.00 21 1017.3
20260507172943 91 107 3.0 5.0 0.00 0.00 0.00 21 1017.2
20260507172439 91 200 2.0 3.0 0.00 0.00 0.00 21 1017.0
20260507171936 91 88 2.0 3.0 0.00 0.00 0.00 21 1017.3
20260507171432 91 354 1.0 3.0 0.00 0.00 0.00 22 1017.3
20260507170930 89 74 2.0 2.0 0.00 0.00 0.00 21 1017.3
20260507170426 89 84 1.0 3.0 0.00 0.00 0.00 21 1017.4
20260507165922 89 259 1.0 3.0 0.00 0.00 0.00 22 1017.4
20260507165418 88 48 1.0 4.0 0.00 0.00 0.00 23 1017.6
20260507164914 89 102 3.0 3.0 0.00 0.00 0.00 23 1017.5
20260507164412 87 251 1.0 3.0 0.00 0.00 0.00 23 1017.5
20260507163909 88 108 2.0 3.0 0.00 0.00 0.00 22 1017.4
20260507163407 87 55 2.0 3.0 0.00 0.00 0.00 24 1017.5
20260507162903 88 76 1.0 3.0 0.00 0.00 0.00 25 1017.4
20260507162358 86 164 0.0 2.0 0.00 0.00 0.00 25 1017.7
20260507161856 86 77 2.0 3.0 0.00 0.00 0.00 26 1017.8
20260507161352 87 44 0.0 2.0 0.00 0.00 0.00 27 1017.7
20260507160849 86 37 1.0 3.0 0.00 0.00 0.00 27 1017.4
20260507160344 84 63 0.0 4.0 0.00 0.00 0.00 28 1017.6
20260507155841 83 67 2.0 4.0 0.00 0.00 0.00 30 1017.6
20260507155336 84 93 2.0 3.0 0.00 0.00 0.00 30 1017.5
20260507154833 84 68 2.0 3.0 0.00 0.00 0.00 30 1017.7
20260507154331 83 61 2.0 3.0 0.00 0.00 0.00 30 1017.7
20260507153828 83 59 2.0 4.0 0.00 0.00 0.00 30 1017.6
20260507153324 82 86 3.0 4.0 0.00 0.00 0.00 30 1017.7
20260507152820 82 74 2.0 4.0 0.00 0.00 0.00 31 1017.6
20260507152317 82 101 3.0 4.0 0.00 0.00 0.00 30 1017.7
20260507151813 82 85 2.0 4.0 0.00 0.00 0.00 31 1017.7
20260507151309 81 101 2.0 3.0 0.00 0.00 0.00 31 1017.7
20260507150806 81 46 2.0 2.0 0.00 0.00 0.00 31 1018.0
20260507150303 81 87 2.0 3.0 0.00 0.00 0.00 31 1017.6
20260507145759 82 80 2.0 3.0 0.00 0.00 0.00 31 1017.6
20260507145255 80 66 2.0 3.0 0.00 0.00 0.00 32 1017.5
20260507144753 80 82 2.0 3.0 0.00 0.00 0.00 32 1017.6
20260507144250 80 61 2.0 3.0 0.00 0.00 0.00 32 1017.7
20260507143746 79 59 0.0 2.0 0.00 0.00 0.00 32 1017.6
20260507143244 79 73 0.0 2.0 0.00 0.00 0.00 32 1017.6
20260507142739 78 53 0.0 1.0 0.00 0.00 0.00 34 1017.5
20260507142236 76 304 0.0 0.0 0.00 0.00 0.00 36 1017.5
20260507141733 76 132 0.0 0.0 0.00 0.00 0.00 34 1017.6
20260507141230 76 286 0.0 1.0 0.00 0.00 0.00 34 1017.4
20260507140726 77 75 0.0 2.0 0.00 0.00 0.00 33 1017.4
20260507140224 73 326 0.0 0.0 0.00 0.00 0.00 36 1017.4
20260507135720 72 279 0.0 1.0 0.00 0.00 0.00 36 1017.2
20260507135218 71 246 0.0 2.0 0.00 0.00 0.00 36 1017.2
20260507134714 69 252 0.0 2.0 0.00 0.00 0.00 37 1017.2
20260507134210 68 258 0.0 2.0 0.00 0.00 0.00 39 1017.3
20260507133706 67 277 0.0 2.0 0.00 0.00 0.00 40 1017.3
20260507133203 66 279 0.0 2.0 0.00 0.00 0.00 41 1017.4
20260507132701 65 113 0.0 2.0 0.00 0.00 0.00 43 1017.3
20260507132157 64 229 0.0 1.0 0.00 0.00 0.00 44 1017.2
20260507131654 63 179 1.0 2.0 0.00 0.00 0.00 47 1017.1
20260507131151 62 234 2.0 2.0 0.00 0.00 0.00 45 1017.1
20260507130648 63 228 1.0 3.0 0.00 0.00 0.00 44 1017.2
20260507130146 63 141 0.0 2.0 0.00 0.00 0.00 48 1017.0
20260507125644 62 160 0.0 1.0 0.00 0.00 0.00 45 1017.1
20260507125142 61 306 0.0 2.0 0.00 0.00 0.00 47 1017.1
20260507124637 61 99 1.0 2.0 0.00 0.00 0.00 46 1016.9
20260507124135 62 286 2.0 2.0 0.00 0.00 0.00 46 1016.9
20260507123633 61 238 1.0 2.0 0.00 0.00 0.00 46 1017.0
20260507123130 62 230 0.0 2.0 0.00 0.00 0.00 46 1016.8
20260507122625 61 259 0.0 2.0 0.00 0.00 0.00 46 1016.9
20260507122121 62 173 1.0 2.0 0.00 0.00 0.00 45 1017.0
20260507121617 62 59 1.0 2.0 0.00 0.00 0.00 47 1016.9
20260507121113 62 296 0.0 2.0 0.00 0.00 0.00 46 1016.9
20260507120609 62 218 0.0 1.0 0.00 0.00 0.00 46 1016.8
20260507120106 63 242 2.0 2.0 0.00 0.00 0.00 46 1016.8
20260507115603 62 227 1.0 2.0 0.00 0.00 0.00 46 1016.9
20260507115059 64 213 2.0 3.0 0.00 0.00 0.00 45 1016.9
20260507114555 63 232 0.0 1.0 0.00 0.00 0.00 44 1017.0
20260507114052 63 236 0.0 2.0 0.00 0.00 0.00 43 1016.8
20260507113549 63 164 0.0 2.0 0.00 0.00 0.00 43 1016.8
20260507113046 63 296 0.0 2.0 0.00 0.00 0.00 43 1016.9
20260507112544 64 228 2.0 3.0 0.00 0.00 0.00 42 1016.9
20260507112040 64 163 2.0 3.0 0.00 0.00 0.00 42 1016.6
20260507111538 63 194 2.0 2.0 0.00 0.00 0.00 44 1016.7
20260507111034 63 162 0.0 1.0 0.00 0.00 0.00 45 1016.6
20260507110531 63 269 0.0 2.0 0.00 0.00 0.00 44 1017.0
20260507110027 64 160 0.0 2.0 0.00 0.00 0.00 44 1016.8
20260507105525 64 238 0.0 1.0 0.00 0.00 0.00 44 1016.8
20260507105020 64 291 0.0 2.0 0.00 0.00 0.00 44 1016.7
20260507104518 63 299 0.0 2.0 0.00 0.00 0.00 44 1016.7
20260507104015 64 208 0.0 2.0 0.00 0.00 0.00 43 1016.9
20260507103505 65 180 1.0 2.0 0.00 0.00 0.00 43 1016.8
20260507103002 65 162 1.0 2.0 0.00 0.00 0.00 43 1016.9
20260507102459 65 141 1.0 2.0 0.00 0.00 0.00 44 1016.7
20260507101954 65 212 1.0 2.0 0.00 0.00 0.00 44 1016.7
20260507101449 64 180 0.0 1.0 0.00 0.00 0.00 43 1016.8
20260507100946 64 189 1.0 1.0 0.00 0.00 0.00 44 1016.9
20260507100443 64 197 0.0 2.0 0.00 0.00 0.00 45 1016.9
20260507095942 65 140 1.0 1.0 0.00 0.00 0.00 44 1016.9
20260507095439 64 146 0.0 0.0 0.00 0.00 0.00 46 1016.8
20260507094936 66 211 0.0 2.0 0.00 0.00 0.00 44 1016.9
20260507094432 66 14 0.0 1.0 0.00 0.00 0.00 44 1016.9
20260507093929 66 206 1.0 2.0 0.00 0.00 0.00 44 1017.1
20260507093427 65 256 2.0 2.0 0.00 0.00 0.00 45 1016.8
20260507092925 65 212 0.0 1.0 0.00 0.00 0.00 44 1017.2
20260507092420 66 170 2.0 2.0 0.00 0.00 0.00 44 1017.2
20260507091917 65 248 1.0 2.0 0.00 0.00 0.00 45 1017.4
20260507091414 66 243 1.0 2.0 0.00 0.00 0.00 44 1017.2
20260507090910 66 239 0.0 1.0 0.00 0.00 0.00 43 1017.5
20260507090406 66 153 1.0 2.0 0.00 0.00 0.00 44 1017.4
20260507085903 66 219 0.0 2.0 0.00 0.00 0.00 44 1017.6
20260507085400 67 213 1.0 2.0 0.00 0.00 0.00 44 1017.5
20260507084857 66 171 0.0 2.0 0.00 0.00 0.00 45 1017.7
20260507084354 66 176 0.0 2.0 0.00 0.00 0.00 45 1017.6
20260507083851 66 234 0.0 2.0 0.00 0.00 0.00 44 1017.7
20260507083347 67 204 1.0 3.0 0.00 0.00 0.00 43 1017.7
20260507082843 67 125 1.0 2.0 0.00 0.00 0.00 45 1017.8
20260507082339 68 66 0.0 1.0 0.00 0.00 0.00 45 1017.6
20260507081837 68 89 0.0 0.0 0.00 0.00 0.00 45 1017.6
20260507081332 68 309 0.0 0.0 0.00 0.00 0.00 42 1017.8
20260507080829 68 202 1.0 2.0 0.00 0.00 0.00 42 1017.9
20260507080325 68 212 0.0 1.0 0.00 0.00 0.00 42 1017.8
20260507075821 68 44 0.0 2.0 0.00 0.00 0.00 42 1017.8
20260507075317 69 269 0.0 1.0 0.00 0.00 0.00 39 1017.9
20260507074814 70 55 0.0 1.0 0.00 0.00 0.00 41 1017.6
20260507074312 69 107 0.0 1.0 0.00 0.00 0.00 42 1017.7
20260507073809 71 196 1.0 2.0 0.00 0.00 0.00 41 1017.7
20260507073305 72 119 0.0 2.0 0.00 0.00 0.00 40 1017.7
20260507072802 72 223 2.0 3.0 0.00 0.00 0.00 41 1017.6
20260507072300 73 173 0.0 3.0 0.00 0.00 0.00 42 1017.9
20260507071757 71 146 2.0 3.0 0.00 0.00 0.00 43 1017.8
20260507071253 70 168 2.0 2.0 0.00 0.00 0.00 44 1017.9
20260507070750 69 252 1.0 2.0 0.00 0.00 0.00 43 1017.7
20260507070247 69 269 0.0 2.0 0.00 0.00 0.00 42 1017.9
20260507065744 70 316 0.0 3.0 0.00 0.00 0.00 43 1017.8
20260507065241 69 311 0.0 2.0 0.00 0.00 0.00 44 1017.7
20260507064738 70 106 2.0 3.0 0.00 0.00 0.00 43 1017.8
20260507064237 70 60 0.0 2.0 0.00 0.00 0.00 43 1017.8
20260507063734 70 91 0.0 2.0 0.00 0.00 0.00 42 1017.6
20260507063230 71 126 0.0 2.0 0.00 0.00 0.00 41 1017.6
20260507062727 72 124 2.0 2.0 0.00 0.00 0.00 41 1017.7
20260507062225 72 109 0.0 2.0 0.00 0.00 0.00 42 1017.6
20260507061723 71 235 1.0 2.0 0.00 0.00 0.00 41 1017.7
20260507061221 72 173 0.0 1.0 0.00 0.00 0.00 42 1017.6
20260507060718 71 171 0.0 1.0 0.00 0.00 0.00 42 1017.5
20260507060214 71 224 0.0 1.0 0.00 0.00 0.00 39 1017.7
20260507055711 73 212 0.0 2.0 0.00 0.00 0.00 40 1017.7
20260507055207 73 65 0.0 2.0 0.00 0.00 0.00 38 1017.7
20260507054703 74 49 0.0 2.0 0.00 0.00 0.00 37 1017.5
20260507054159 74 287 0.0 4.0 0.00 0.00 0.00 37 1017.7
20260507053658 75 87 1.0 3.0 0.00 0.00 0.00 36 1017.6
20260507053155 75 131 1.0 2.0 0.00 0.00 0.00 36 1017.7
20260507052654 74 127 0.0 4.0 0.00 0.00 0.00 36 1017.7
20260507052149 74 170 1.0 2.0 0.00 0.00 0.00 36 1017.7
20260507051647 74 217 2.0 2.0 0.00 0.00 0.00 36 1017.6
20260507051144 74 174 1.0 2.0 0.00 0.00 0.00 36 1017.8
20260507050641 75 66 0.0 2.0 0.00 0.00 0.00 34 1017.9
20260507050137 75 151 2.0 2.0 0.00 0.00 0.00 34 1017.9
20260507045634 75 75 0.0 4.0 0.00 0.00 0.00 34 1018.0
20260507045131 75 180 0.0 2.0 0.00 0.00 0.00 35 1017.8
20260507044628 77 89 0.0 2.0 0.00 0.00 0.00 36 1018.0